Rechercher aéroport 
image banner adimage banner ad
image banner ad

SSKX - Fazenda São Luíz do Matão Airport

Situé à Carneirinho, Brazil

ICAO - SSKX, IATA -

Données fournies par Airmate  

Information générale

Coordonnées: S11°25'19" W37°19'25"
Élévation : 9 feet MSL.
Variation magnétique : -23° East
Voir autres Aéroports à Sergipe

Données opérationnelles

Accessible au public
Heure actuelle UTC:
Heure actuelle locale:
Météo à : SBAR - Santa Maria ( 56 km )
METAR: SBAR 230500Z 12008KT 9999 SCT018 27/21 Q1013
TAF: TAF SBAR 222100Z 2300/2324 11010KT 9999 SCT017 TN25/2308Z TX30/2318Z BECMG 2301/2303 08007KT 8000 SCT015 BKN030 BECMG 2308/2311 11010KT SCT017 BKN035 BECMG 2316/2318 14012KT 9999 SCT022 BECMG 2321/2323 11007KT SCT017 RMK PHN
Voir NOTAMs / SUP AIP / TFR affectant cet aéroport [VIEW]
Fréquences de communication: [VIEW]

Pistes:

Identifiant RWYQFULongueur (ft)Largeur (ft)SurfaceLDA (ft)
13164059DIRT
31164059DIRT

Coordonnées de l'aéroport

Adresse: Carneirinho Brazil

Vue satellite de SSKX